Location: Casteau
(50.5142°N, 4.0161°E)
Time: 04:53:57
(UTC+00:00)

Vanguard 1 Rocket - Pass Details

Date: 29 July 2021
Orbit: 650 x 4226 km, 34.3° (Epoch: 21 September)

Event Time Altitude Azimuth Distance (km) Brightness Sun altitude
Rises 10:24:46 0° 226° (SW) 7,604 12.2 53.9°
Reaches altitude 10° 10:31:35 10° 218° (SW) 6,003 11.9 54.5°
Maximum altitude 10:44:13 27° 169° (S) 3,406 11.5 55.5°
Drops below altitude 10° 10:52:01 10° 116° (ESE) 3,619 11.0 56.1°
Sets 10:54:55 0° 103° (ESE) 4,221 11.1 56.3°
